Home   Weather   Meiningen   Past weeks
Flag for Germany

Past Weather in Meiningen, Thuringia, Germany — Yesterday and Last 2 Weeks

Now
54 °F

Passing clouds.


Feels Like: 52 °F
Forecast: 67 / 48 °F
Wind: 7 mph from Northwest

Location: Erfurt-Bindersleben

Current Time: Oct 22, 2019 at 9:34:00 pm

Latest Report: Oct 22, 2019 at 8:50 pm


Visibility: N/A

Pressure: 30.24 "Hg

Humidity: 77%

Dew Point: 46 °F

Location of MeiningenLocation

Past Weather in Meiningen — Graph

°F

Meiningen Temperature Yesterday

Maximum temperature yesterday: 64 °F (at 3:20 pm)
Minimum temperature yesterday: 50 °F (at 6:20 am)
Average temperature yesterday: 58 °F

High & Low Weather Summary for the Past Weeks

 TemperatureHumidityPressure
High77 °F (Oct 14, 2:20 pm)100% (Oct 8, 7:50 pm)30.27 "Hg (Oct 8, 7:50 pm)
Low45 °F (Oct 7, 8:20 pm)42% (Oct 14, 3:20 pm)29.68 "Hg (Oct 15, 3:50 pm)
Average57 °F77%29.89 "Hg
* Reported Oct 7 8:20 pm — Oct 22 8:20 pm, Meiningen. Weather by CustomWeather, © 2019

Note: Actual official high and low records may vary slightly from our data, if they occured in-between our weather recording intervals... More about our weather records

Advertising

Meiningen Weather History for the Previous 24 Hours

Scroll right to see more
 ConditionsComfort  
Time TempWeatherWind HumidityBarometerVisibility
8:20 pm
Tue, Oct 22
55 °FClear.5 mph72%30.24 "Hg10 mi
7:50 pm55 °FClear.3 mph72%30.21 "Hg10 mi
7:20 pm55 °FClear.3 mph72%30.21 "Hg10 mi
6:50 pm57 °FClear.3 mph72%30.21 "Hg10 mi
6:20 pm57 °FClear.3 mph72%30.21 "Hg10 mi
5:50 pm59 °FSunny.1 mph72%30.21 "Hg10 mi
5:20 pm61 °FSunny.3 mph68%30.21 "Hg10 mi
4:50 pm61 °FPassing clouds.3 mph72%30.21 "HgN/A
4:20 pm63 °FPassing clouds.6 mph68%30.21 "HgN/A
3:50 pm61 °FPassing clouds.5 mph72%30.21 "HgN/A
3:20 pm63 °FPassing clouds.5 mph68%30.21 "HgN/A
2:50 pm63 °FPassing clouds.5 mph73%30.24 "HgN/A
2:20 pm63 °FPassing clouds.5 mph68%30.24 "HgN/A
1:50 pm63 °FPassing clouds.3 mph68%30.24 "HgN/A
1:20 pm61 °FPassing clouds.5 mph72%30.24 "HgN/A
12:50 pm61 °FPassing clouds.2 mph72%30.27 "HgN/A
12:20 pm59 °FPassing clouds.5 mph77%30.27 "HgN/A
11:50 am59 °FPassing clouds.6 mph77%30.27 "HgN/A
11:20 am61 °FSunny.2 mph72%30.24 "Hg10 mi
10:50 am59 °FPassing clouds.3 mph77%30.24 "HgN/A
10:20 am54 °FSunny.7 mph88%30.24 "Hg10 mi
9:50 am54 °FSunny.7 mph88%30.24 "Hg10 mi
9:20 am54 °FSunny.8 mph88%30.24 "Hg10 mi
8:50 am52 °FSunny.7 mph94%30.21 "Hg10 mi
8:20 am52 °FSunny.7 mph88%30.21 "Hg10 mi
7:50 am50 °FSunny.8 mph94%30.21 "Hg10 mi
7:20 am50 °FClear.7 mph94%30.21 "Hg10 mi
6:50 am50 °FClear.6 mph94%30.21 "Hg10 mi
6:20 am52 °FClear.5 mph94%30.21 "Hg10 mi
5:50 am52 °FClear.6 mph94%30.21 "Hg10 mi
5:20 am52 °FClear.7 mph94%30.21 "Hg10 mi
4:50 am52 °FClear.5 mph88%30.18 "Hg10 mi
4:20 am52 °FPassing clouds.3 mph88%30.18 "HgN/A
3:50 am52 °FPassing clouds.5 mph88%30.18 "HgN/A
3:20 am54 °FClear.5 mph82%30.21 "Hg10 mi
2:50 am55 °FClear.1 mph77%30.21 "Hg10 mi
2:20 am55 °FClear.6 mph82%30.18 "Hg10 mi
1:50 am55 °FClear.7 mph82%30.21 "Hg10 mi
1:20 am55 °FClear.8 mph82%30.18 "Hg10 mi
12:50 am55 °FClear.9 mph82%30.18 "Hg10 mi
12:20 am57 °FClear.7 mph82%30.18 "Hg10 mi
11:50 pm
Mon, Oct 21
57 °FClear.3 mph88%30.18 "Hg10 mi
11:20 pm59 °FClear.2 mph82%30.18 "Hg10 mi
10:50 pm59 °FClear.3 mph82%30.18 "Hg10 mi
10:20 pm59 °FClear.2 mph82%30.18 "Hg10 mi
9:50 pm61 °FClear.7 mph77%30.15 "Hg10 mi
9:20 pm59 °FClear.6 mph82%30.15 "Hg10 mi
Weather by CustomWeather, © 2019

See weather overview